Location: Poughquag
(41.6090°N, 73.6820°W)
Time: 02:13:19
(UTC-04:00)

Vanguard 2 Rocket - Visible Passes

Search period start: 20 July 2024 00:00
Search period end: 30 July 2024 00:00
Orbit: 555 x 3302 km, 32.9° (Epoch: 19 July)

Date Brightness Start Highest point End Pass type
(mag) Time Alt. Az. Time Alt. Az. Time Alt. Az.
20 Jul 8.8 00:06:11 10° W 00:14:48 41° SSW 00:15:47 40° S visible
20 Jul 10.0 02:20:38 10° WSW 02:44:01 - SSE 02:21:11 11° WSW visible
20 Jul 7.8 20:52:36 10° WSW 20:58:05 43° S 21:07:14 10° ESE visible
20 Jul 8.4 23:04:02 10° WSW 23:11:26 44° S 23:15:23 34° SSE visible
21 Jul 9.5 01:17:09 10° WSW 01:20:48 21° WSW 01:20:48 21° WSW visible
21 Jul 8.1 22:02:07 10° WSW 22:08:25 44° S 22:15:12 21° SE visible
22 Jul 9.0 00:14:23 10° WSW 00:20:39 31° SW 00:20:39 31° SW visible
22 Jul 7.8 21:00:23 10° WSW 21:05:43 42° S 21:14:30 10° ESE visible
22 Jul 8.6 23:12:05 10° WSW 23:19:04 36° SSW 23:20:38 34° S visible
23 Jul 8.2 22:10:03 10° WSW 22:16:04 38° S 22:20:43 25° SE visible
24 Jul 9.4 00:22:56 10° WSW 00:26:11 19° SW 00:26:11 19° SW visible
24 Jul 7.8 21:08:14 10° WSW 21:13:20 38° S 21:20:54 12° ESE visible
24 Jul 8.8 23:20:20 10° WSW 23:26:23 27° SSW 23:26:23 27° SSW visible
25 Jul 8.4 22:18:07 10° WSW 22:23:42 30° SSW 22:26:38 25° SSE visible
26 Jul 8.0 21:16:10 10° WSW 21:20:59 32° S 21:26:57 14° SE visible
26 Jul 9.2 23:29:02 10° WSW 23:32:27 18° SW 23:32:27 18° SW visible
27 Jul 8.7 22:26:28 10° WSW 22:31:21 22° SSW 22:32:49 21° S visible
28 Jul 8.3 21:24:16 10° WSW 21:28:37 24° SSW 21:33:15 14° SSE visible
29 Jul 9.1 22:35:30 10° SW 22:38:59 14° SSW 22:39:13 14° SSW visible
